Regional Weather Roundup
Issued by NWS Cleveland, OH

Current Version | Previous Version | Text Only | Print | Product List | Glossary On
Versions: 1 2 3 4 5 6 7 8 9 10 11 12 13 14 15 16 17 18 19 20 21 22 23 24 25 26 27 28 29 30 31 32 33 34 35 36 37 38 39 40 41 42 43 44 45 46 47 48 49 50
000
ASUS41 KCLE 121112
RWRCLE
OHIO REGIONAL WEATHER ROUNDUP
NATIONAL WEATHER SERVICE WILMINGTON, OH
600 AM EST TUE DEC 12 2017

NOTE: "FAIR" INDICATES FEW OR NO CLOUDS BELOW 12,000 FEET WITH NO
SIGNIFICANT WEATHER AND/OR OBSTRUCTIONS TO VISIBILITY.

OHZ001>008-015>018-024>027-034-035-043-044-121200-
   NORTHWEST OHIO

CITY           SKY/WX    TMP DP  RH WIND       PRES   REMARKS
DEFIANCE       MOCLDY    26  17  68 NW14      29.82R WCI  14
FINDLAY        CLOUDY    30  21  69 NW18      29.76R WCI  18
TOLEDO EXPRESS CLOUDY    27  18  69 NW14G25   29.77R WCI  16
TOLEDO EXEC    FLURRIES  28  21  75 NW15G24   29.78R WCI  16
LIMA           MIX PCPN  28  22  78 NW21G29   29.78R WCI  15
$$

OHZ009>014-019>023-028>033-038-089-121200-
   NORTHEAST OHIO

CITY           SKY/WX    TMP DP  RH WIND       PRES   REMARKS
CLE-HOPKINS    LGT SNOW  32  28  85 NW17G28   29.68R FOG     WCI  21
CLE-LAKEFRONT  LGT SNOW  32  27  81 NW25G33   29.65R WCI  19
CUY CO. ARPT   NOT AVBL
LORAIN-ELYRIA  LGT SNOW  29  22  75 N14G26    29.69R WCI  18
ASHTABULA      LGT SNOW  32  30  92 NW9       29.58R FOG     WCI  24
AKRON-CANTON   LGT SNOW  32  28  85 W9        29.62R FOG     WCI  24
WOOSTER        LGT SNOW  30  28  92 NW15      29.66R FOG     WCI  19
MANSFIELD      LGT SNOW  29  28  96 NW18G25   29.68R FOG     WCI  16
YOUNGSTOWN     LGT SNOW  30  28  92 W7        29.57R VSB 1   WCI  23
$$

OHZ042-051>053-060>062-070>072-077>081-121200-
  SOUTHWEST OHIO

CITY           SKY/WX    TMP DP  RH WIND       PRES   REMARKS
CINC-COVINGTON DRIZZLE   33  32  96 W17G26    29.84R FOG     WCI  22
CINC-LUNKEN    CLOUDY    36  31  82 W12G22    29.86R
HAMILTON       CLOUDY    34  31  88 NW16G23   29.85R WCI  24
DAYTON         LGT SNOW  31  29  92 NW20G26   29.80R FOG     WCI  19
WRIGHT-PAT AFB LGT SNOW  32  32 100 NW17G28   29.79R FOG     WCI  21
DAYTON GENERAL CLOUDY    33  30  88 NW12G23   29.80R WCI  24
WILMINGTON     LGT RAIN  33  32  96 NW18      29.78R FOG     WCI  22
$$

OHZ036-037-039>041-045>050-054>059-063>069-073>076-082>088-121200-
  CENTRAL AND SOUTHEAST OHIO

CITY           SKY/WX    TMP DP  RH WIND       PRES   REMARKS
COLUMBUS       LGT SNOW  33  31  92 NW16G23   29.73R FOG     WCI  23
OSU AIRPORT    CLOUDY    33  29  85 NW17G28   29.74R WCI  22
BOLTON FIELD   RAIN      32  31  95 NW14G21   29.75R WCI  22
RICKENBACK AFB CLOUDY    33  32  97 NW10      29.75R FOG     WCI  24
NEWARK         LGT SNOW  33  30  88 NW14G24   29.72R FOG     WCI  23
MARION         NOT AVBL
LANCASTER      MIX PCPN  33  30  88 W9G22     29.74R FOG     WCI  25
ZANESVILLE     CLOUDY    35  28  75 W10G26    29.69R WCI  27
NEW PHILLY     LGT SNOW  33  29  85 W12       29.67R FOG     WCI  24
$$




USA.gov is the U.S. government's official web portal to all federal, state and local government web resources and services.